Moab, UT

3:50 AM MDT on October 16, 2019 (GMT -0600)
Canyonlands

Weather History for KCNY - August, 2019

Change the Weather History Date:

Thursday, August 1, 2019

  Actual Average Record
Temperature  
Mean Temperature 79 °F 80 °F  
Max Temperature 91 °F 95 °F 107 °F (1938)
Min Temperature 67 °F 66 °F 54 °F (1950)
Degree Days  
Heating Degree Days 0 0  
Month to date heating degree days 0 0  
Since 1 June heating degree days 23 17  
Since 1 July heating degree days 0 0  
Cooling Degree Days 14 15  
Month to date cooling degree days 14 15  
Year to date cooling degree days 787 808  
Since 1 June cooling degree days 772 744  
Growing Degree Days 29 (Base 50)    
Moisture  
Dew Point 55 °F    
Average Humidity 52    
Maximum Humidity 81    
Minimum Humidity 23    
Precipitation  
Precipitation 0.00 in 0.02 in 0.67 in (1976)
Month to date precipitation 0.00 0.02  
Year to date precipitation 6.15 4.56  
Sea Level Pressure  
Sea Level Pressure 29.95 in    
Wind  
Wind Speed 6 mph (WNW)    
Max Wind Speed 14 mph    
Max Gust Speed 21 mph    
Visibility 10 miles    
Events      
T = Trace of Precipitation, MM = Missing Value Source: NWS Daily Summary

Daily Weather History Graph

Daily Weather History Graph

Search for Another Location

Airport or City:

Astronomy

Aug. 01, 2019 Rise Set
Actual Time 6:20 AM MDT 8:29 PM MDT
Civil Twilight 5:50 AM MDT 8:59 PM MDT
Nautical Twilight 5:14 AM MDT 9:35 PM MDT
Astronomical Twilight 4:34 AM MDT 10:15 PM MDT
Moon 6:49 AM MDT (8/1) 9:19 PM MDT (8/1)
Length of Visible Light 15h 08m
Length of Day
14h 09m
New Moon, 1% of the Moon is Illuminated
Aug 1
New Moon
Aug 7
First Quarter
Aug 15
Full
Aug 23
Last Quarter
Aug 30
New

Hourly Weather History & Observations

Time (MDT) Temp. Heat Index Dew Point Humidity Pressure Visibility Wind Dir Wind Speed Gust Speed Precip Events Conditions
12:53 AM 72.0 °F - 60.1 °F 66% 29.97 in 10.0 mi Calm Calm - 0.00 in   Scattered Clouds
1:53 AM 72.0 °F - 59.0 °F 64% 29.94 in 10.0 mi NNW 6.9 mph - N/A   Mostly Cloudy
2:53 AM 68.0 °F - 61.0 °F 78% 29.94 in 10.0 mi WSW 3.5 mph - N/A   Clear
3:53 AM 68.0 °F - 57.9 °F 70% 29.93 in 10.0 mi NW 4.6 mph - N/A   Clear
4:53 AM 68.0 °F - 62.1 °F 81% 29.94 in 10.0 mi NW 9.2 mph - N/A   Clear
5:53 AM 68.0 °F - 63.0 °F 84% 29.96 in 10.0 mi WNW 5.8 mph - N/A   Overcast
6:53 AM 68.0 °F - 63.0 °F 84% 30.01 in 10.0 mi NW 4.6 mph - N/A   Overcast
7:53 AM 69.1 °F - 62.1 °F 78% 30.02 in 10.0 mi NW 6.9 mph - N/A   Mostly Cloudy
8:53 AM 73.9 °F - 61.0 °F 64% 30.02 in 10.0 mi NNW 5.8 mph - N/A   Scattered Clouds
9:53 AM 78.1 °F - 61.0 °F 56% 30.02 in 10.0 mi North 6.9 mph - N/A   Clear
10:53 AM 79.0 °F - 59.0 °F 50% 30.02 in 10.0 mi Variable 4.6 mph - N/A   Partly Cloudy
11:53 AM 81.0 °F 81.1 °F 57.9 °F 45% 30.01 in 10.0 mi SW 5.8 mph 19.6 mph N/A   Clear
12:53 PM 82.9 °F 82.6 °F 57.9 °F 42% 30.00 in 10.0 mi Variable 4.6 mph - N/A   Clear
1:53 PM 86.0 °F 84.5 °F 55.0 °F 35% 29.97 in 10.0 mi Variable 4.6 mph - N/A   Clear
2:53 PM 88.0 °F - 46.9 °F 24% 29.95 in 10.0 mi NW 9.2 mph - N/A   Clear
3:53 PM 89.1 °F - 46.0 °F 22% 29.92 in 10.0 mi North - - N/A   Clear
4:53 PM 89.1 °F - 50.0 °F 26% 29.91 in 10.0 mi WSW 8.1 mph - N/A   Clear
5:53 PM 89.1 °F - 48.9 °F 25% 29.88 in 10.0 mi West 6.9 mph - N/A   Clear
6:53 PM 90.0 °F - 50.0 °F 25% 29.86 in 10.0 mi WSW 8.1 mph - N/A   Clear
7:53 PM 87.1 °F - 50.0 °F 28% 29.88 in 10.0 mi WSW 5.8 mph - N/A   Clear
8:53 PM 82.9 °F - 48.9 °F 31% 29.88 in 10.0 mi SW 4.6 mph - N/A   Clear
9:53 PM 81.0 °F - 48.9 °F 33% 29.89 in 10.0 mi WSW 3.5 mph - N/A   Clear
10:53 PM 79.0 °F - 48.9 °F 35% 29.92 in 10.0 mi Calm Calm - N/A   Clear
11:53 PM 78.1 °F - 48.9 °F 36% 29.91 in 10.0 mi Calm Calm - N/A   Clear